LDPE-2

Last updated on Sun Apr 12 2026 00:02:56 GMT+0000 (Coordinated Universal Time)

1 54219U 22144A 26101.33464293 -.00000222 00000+0 00000+0 0 9993 2 54219 5.4793 63.9909 0000467 16.3360 20.6246 1.00539146 11172
UTC large
Height (km)
Speed (km/s)
/
Latitude / Longitude
Inclination (degrees)
Orbital Period (minutes)
Azimuth
Elevation
Range (km)
Doppler Factor

Next 0 passes for location: London (51.5072 / 0.1276)

Sorry there are no passes over London.
LDPE-2